QPF
0.02 0.02 0.01 0.01 0.01 0.01 0.01 0.00 0.00 0.00 0.00 0.00 0.00 0.00 0.01 0.01 0.00 0.00 0.01 0.01 0.01 0.01 0.01 0.01 0.01 0.01 0.00 0.00 0.00 0.00 0.00 0.00 0.00 0.00 0.00 0.00 0.00 0.00 0.00 0.00 0.00 0.00 0.00 0.00
0.02 0.02 0.02 0.01 0.01 0.01 0.01 0.01 0.00 0.00 0.00 0.00 0.00 0.00 0.01 0.00 0.00 0.00 0.00 0.00 0.00 0.01 0.01 0.01 0.02 0.03 0.01 0.00 0.00 0.00 0.00 0.00 0.00 0.00 0.00 0.00 0.00 0.00 0.00 0.00 0.00 0.00 0.00 0.00
0.01 0.02 0.02 0.01 0.01 0.01 0.01 0.01 0.01 0.01 0.01 0.00 0.01 0.01 0.01 0.01 0.00 0.00 0.01 0.00 0.00 0.00 0.00 0.01 0.01 0.02 0.01 0.01 0.01 0.00 0.01 0.01 0.00 0.00 0.00 0.00 0.00 0.00 0.00 0.00 0.00 0.00 0.00 0.00
0.02 0.02 0.03 0.03 0.02 0.01 0.01 0.01 0.01 0.01 0.01 0.01 0.01 0.01 0.01 0.01 0.00 0.00 0.00 0.00 0.00 0.00 0.00 0.00 0.01 0.01 0.02 0.01 0.01 0.02 0.02 0.01 0.01 0.01 0.01 0.00 0.00 0.00 0.00 0.00 0.00 0.00 0.00 0.00
0.03 0.02 0.02 0.03 0.03 0.03 0.02 0.02 0.02 0.02 0.02 0.02 0.02 0.02 0.02 0.01 0.01 0.01 0.01 0.00 0.00 0.00 0.00 0.00 0.00 0.01 0.02 0.01 0.01 0.01 0.02 0.01 0.01 0.01 0.01 0.01 0.01 0.00 0.01 0.01 0.00 0.00 0.00 0.00
0.02 0.03 0.03 0.03 0.04 0.03 0.03 0.03 0.02 0.03 0.02 0.02 0.02 0.02 0.02 0.02 0.01 0.01 0.01 0.01 0.01 0.01 0.01 0.01 0.01 0.01 0.01 0.01 0.01 0.00 0.01 0.01 0.01 0.01 0.01 0.01 0.01 0.01 0.01 0.01 0.01 0.01 0.00 0.00
0.02 0.02 0.03 0.03 0.03 0.04 0.05 0.04 0.03 0.02 0.02 0.03 0.03 0.03 0.03 0.03 0.02 0.02 0.02 0.02 0.02 0.01 0.01 0.02 0.02 0.02 0.01 0.00 0.00 0.00 0.00 0.01 0.01 0.02 0.02 0.02 0.02 0.02 0.02 0.01 0.01 0.01 0.01 0.01
0.03 0.03 0.03 0.03 0.03 0.03 0.03 0.03 0.03 0.02 0.03 0.03 0.03 0.03 0.03 0.03 0.02 0.02 0.02 0.02 0.05 0.04 0.02 0.02 0.02 0.02 0.02 0.01 0.01 0.01 0.00 0.01 0.01 0.03 0.02 0.02 0.02 0.02 0.01 0.01 0.01 0.02 0.02 0.02
0.04 0.04 0.03 0.02 0.03 0.03 0.03 0.02 0.02 0.02 0.03 0.03 0.04 0.04 0.04 0.03 0.03 0.02 0.02 0.02 0.05 0.05 0.03 0.02 0.02 0.01 0.01 0.01 0.01 0.01 0.01 0.01 0.02 0.02 0.02 0.01 0.02 0.02 0.02 0.02 0.02 0.02 0.02 0.02
0.06 0.07 0.04 0.03 0.03 0.04 0.03 0.03 0.03 0.03 0.02 0.03 0.04 0.05 0.05 0.04 0.03 0.03 0.02 0.03 0.04 0.04 0.02 0.03 0.03 0.02 0.02 0.03 0.04 0.04 0.03 0.03 0.03 0.02 0.02 0.02 0.02 0.02 0.02 0.03 0.03 0.03 0.03 0.03
0.07 0.07 0.04 0.04 0.04 0.04 0.03 0.02 0.03 0.02 0.02 0.03 0.04 0.05 0.05 0.04 0.03 0.03 0.04 0.04 0.04 0.04 0.03 0.04 0.03 0.03 0.05 0.06 0.07 0.06 0.05 0.04 0.04 0.04 0.03 0.03 0.04 0.04 0.04 0.04 0.03 0.04 0.03 0.04
0.06 0.06 0.06 0.05 0.04 0.04 0.02 0.02 0.02 0.03 0.04 0.04 0.03 0.04 0.05 0.04 0.03 0.03 0.06 0.10 0.06 0.05 0.06 0.06 0.06 0.06 0.07 0.08 0.09 0.08 0.06 0.05 0.05 0.05 0.05 0.05 0.05 0.04 0.04 0.03 0.02 0.02 0.02 0.02
0.06 0.06 0.06 0.05 0.04 0.04 0.03 0.02 0.03 0.05 0.05 0.04 0.04 0.03 0.04 0.04 0.03 0.03 0.06 0.18 0.19 0.11 0.08 0.09 0.08 0.09 0.08 0.08 0.08 0.08 0.06 0.06 0.05 0.05 0.05 0.04 0.04 0.03 0.03 0.03 0.02 0.02 0.02 0.02
0.07 0.07 0.06 0.03 0.03 0.05 0.04 0.03 0.03 0.05 0.05 0.03 0.03 0.03 0.03 0.03 0.03 0.03 0.03 0.10 0.14 0.14 0.09 0.09 0.08 0.08 0.09 0.09 0.08 0.07 0.07 0.08 0.07 0.06 0.05 0.04 0.03 0.03 0.03 0.02 0.02 0.02 0.02 0.02
0.08 0.07 0.05 0.03 0.03 0.07 0.05 0.06 0.06 0.05 0.06 0.06 0.05 0.04 0.03 0.03 0.03 0.03 0.03 0.03 0.03 0.05 0.05 0.05 0.04 0.04 0.05 0.06 0.07 0.06 0.05 0.06 0.06 0.06 0.05 0.05 0.04 0.03 0.02 0.02 0.02 0.02 0.02 0.02
0.10 0.07 0.05 0.04 0.05 0.07 0.07 0.08 0.09 0.07 0.07 0.08 0.07 0.05 0.05 0.04 0.04 0.04 0.04 0.04 0.03 0.02 0.02 0.02 0.03 0.03 0.04 0.04 0.04 0.04 0.05 0.06 0.06 0.06 0.06 0.06 0.06 0.05 0.04 0.04 0.03 0.03 0.02 0.02
0.09 0.07 0.05 0.05 0.06 0.07 0.09 0.10 0.12 0.09 0.08 0.09 0.09 0.08 0.07 0.07 0.06 0.06 0.05 0.05 0.05 0.05 0.05 0.04 0.03 0.03 0.03 0.04 0.04 0.04 0.04 0.05 0.08 0.07 0.06 0.05 0.05 0.04 0.04 0.04 0.04 0.04 0.03 0.03
0.08 0.07 0.07 0.06 0.05 0.06 0.07 0.08 0.10 0.08 0.06 0.07 0.08 0.09 0.09 0.09 0.07 0.06 0.05 0.04 0.04 0.05 0.04 0.04 0.04 0.04 0.04 0.04 0.04 0.03 0.04 0.04 0.03 0.03 0.03 0.04 0.04 0.04 0.04 0.04 0.05 0.05 0.04 0.04
0.10 0.11 0.09 0.08 0.07 0.06 0.05 0.05 0.06 0.06 0.04 0.04 0.06 0.06 0.07 0.07 0.07 0.06 0.05 0.04 0.03 0.03 0.03 0.03 0.03 0.04 0.04 0.04 0.05 0.05 0.04 0.04 0.03 0.04 0.04 0.05 0.05 0.05 0.04 0.04 0.04 0.04 0.03 0.03
0.14 0.11 0.09 0.07 0.06 0.05 0.04 0.03 0.03 0.04 0.03 0.03 0.05 0.05 0.04 0.04 0.04 0.05 0.05 0.04 0.04 0.03 0.02 0.02 0.03 0.03 0.03 0.04 0.04 0.03 0.03 0.03 0.03 0.03 0.04 0.03 0.03 0.03 0.03 0.03 0.03 0.02 0.02 0.02
0.11 0.09 0.08 0.06 0.04 0.04 0.03 0.03 0.03 0.02 0.02 0.02 0.03 0.05 0.05 0.06 0.06 0.05 0.04 0.04 0.04 0.03 0.03 0.02 0.02 0.03 0.03 0.03 0.03 0.03 0.02 0.02 0.02 0.02 0.02 0.02 0.02 0.01 0.01 0.01 0.01 0.01 0.01 0.01
0.11 0.08 0.07 0.05 0.03 0.03 0.02 0.02 0.03 0.03 0.03 0.03 0.04 0.04 0.04 0.05 0.05 0.04 0.04 0.03 0.03 0.03 0.03 0.03 0.03 0.03 0.03 0.04 0.05 0.05 0.04 0.04 0.03 0.03 0.02 0.02 0.02 0.01 0.01 0.01 0.01 0.01 0.00 0.00
0.09 0.07 0.05 0.04 0.03 0.03 0.03 0.02 0.02 0.03 0.04 0.04 0.05 0.04 0.04 0.03 0.03 0.03 0.02 0.02 0.02 0.02 0.01 0.01 0.01 0.02 0.03 0.05 0.06 0.07 0.07 0.07 0.06 0.05 0.05 0.04 0.04 0.03 0.03 0.02 0.02 0.01 0.01 0.01
0.06 0.05 0.04 0.02 0.01 0.02 0.01 0.01 0.01 0.02 0.02 0.02 0.03 0.02 0.02 0.01 0.01 0.01 0.00 0.00 0.00 0.00 0.01 0.01 0.01 0.02 0.03 0.04 0.04 0.05 0.05 0.05 0.05 0.04 0.03 0.03 0.03 0.03 0.02 0.02 0.01 0.01 0.01 0.01
0.05 0.04 0.04 0.02 0.02 0.01 0.01 0.01 0.01 0.01 0.01 0.01 0.01 0.01 0.00 0.00 0.00 0.00 0.00 0.00 0.00 0.00 0.00 0.00 0.01 0.02 0.03 0.04 0.04 0.04 0.04 0.04 0.04 0.04 0.03 0.03 0.02 0.02 0.02 0.01 0.01 0.01 0.01 0.01
0.02 0.01 0.01 0.01 0.01 0.01 0.00 0.00 0.00 0.00 0.01 0.01 0.00 0.00 0.00 0.00 0.00 0.00 0.00 0.00 0.00 0.01 0.01 0.01 0.01 0.01 0.02 0.02 0.02 0.03 0.03 0.03 0.03 0.03 0.03 0.03 0.03 0.02 0.02 0.01 0.01 0.01 0.01 0.00
0.01 0.00 0.00 0.00 0.00 0.00 0.00 0.00 0.00 0.00 0.00 0.00 0.00 0.00 0.00 0.00 0.00 0.00 0.00 0.01 0.01 0.01 0.01 0.02 0.02 0.02 0.02 0.02 0.02 0.02 0.02 0.02 0.02 0.02 0.02 0.02 0.01 0.01 0.01 0.01 0.01 0.01 0.01 0.01
MSLP
1008.70 1009.17 1009.61 1010.02 1010.35 1010.55 1010.59 1010.44 1010.08 1009.54 1008.84 1008.07 1007.30 1006.61 1006.07 1005.75 1005.64 1005.76 1006.07 1006.54 1007.11 1007.73 1008.37 1009.01 1009.65 1010.27 1010.90 1011.54 1012.19 1012.83 1013.47 1014.08 1014.65 1015.18 1015.66 1016.09 1016.50 1016.90 1017.29 1017.69 1018.09 1018.48 1018.85 1019.18
1009.01 1009.34 1009.58 1009.74 1009.80 1009.75 1009.57 1009.28 1008.87 1008.37 1007.79 1007.20 1006.63 1006.14 1005.75 1005.51 1005.41 1005.45 1005.63 1005.92 1006.31 1006.76 1007.28 1007.85 1008.47 1009.14 1009.85 1010.60 1011.37 1012.13 1012.87 1013.56 1014.19 1014.76 1015.27 1015.73 1016.16 1016.57 1016.99 1017.40 1017.82 1018.22 1018.59 1018.92
1009.33 1009.51 1009.56 1009.49 1009.31 1009.04 1008.69 1008.29 1007.86 1007.41 1006.96 1006.53 1006.15 1005.82 1005.56 1005.37 1005.25 1005.21 1005.23 1005.34 1005.52 1005.80 1006.17 1006.64 1007.23 1007.92 1008.69 1009.54 1010.41 1011.28 1012.12 1012.90 1013.60 1014.22 1014.76 1015.25 1015.71 1016.15 1016.58 1017.02 1017.45 1017.86 1018.23 1018.55
1009.64 1009.67 1009.54 1009.27 1008.90 1008.46 1007.99 1007.53 1007.09 1006.70 1006.37 1006.09 1005.86 1005.66 1005.48 1005.31 1005.15 1005.00 1004.87 1004.79 1004.78 1004.87 1005.10 1005.47 1006.00 1006.68 1007.50 1008.41 1009.36 1010.32 1011.25 1012.10 1012.86 1013.53 1014.13 1014.65 1015.15 1015.61 1016.07 1016.53 1016.98 1017.39 1017.76 1018.07
1009.86 1009.75 1009.48 1009.07 1008.56 1008.02 1007.48 1006.99 1006.57 1006.24 1005.99 1005.82 1005.69 1005.57 1005.44 1005.26 1005.04 1004.79 1004.51 1004.26 1004.07 1004.01 1004.10 1004.37 1004.84 1005.50 1006.33 1007.27 1008.28 1009.30 1010.29 1011.20 1012.02 1012.74 1013.38 1013.95 1014.48 1014.99 1015.48 1015.96 1016.42 1016.84 1017.21 1017.51
1009.95 1009.73 1009.34 1008.84 1008.27 1007.67 1007.11 1006.62 1006.23 1005.95 1005.76 1005.65 1005.57 1005.48 1005.34 1005.13 1004.83 1004.47 1004.08 1003.69 1003.37 1003.18 1003.17 1003.36 1003.78 1004.41 1005.23 1006.19 1007.22 1008.27 1009.29 1010.25 1011.11 1011.88 1012.57 1013.19 1013.76 1014.31 1014.83 1015.34 1015.82 1016.25 1016.62 1016.90
1009.85 1009.54 1009.09 1008.55 1007.96 1007.36 1006.82 1006.35 1005.99 1005.74 1005.57 1005.47 1005.38 1005.27 1005.08 1004.81 1004.45 1004.00 1003.51 1003.03 1002.63 1002.36 1002.29 1002.43 1002.81 1003.42 1004.22 1005.18 1006.21 1007.27 1008.32 1009.30 1010.19 1011.01 1011.74 1012.40 1013.02 1013.61 1014.17 1014.71 1015.20 1015.64 1016.01 1016.29
1009.53 1009.16 1008.69 1008.16 1007.60 1007.04 1006.54 1006.11 1005.77 1005.52 1005.34 1005.19 1005.05 1004.86 1004.60 1004.25 1003.81 1003.29 1002.75 1002.23 1001.80 1001.52 1001.43 1001.56 1001.93 1002.53 1003.32 1004.26 1005.29 1006.35 1007.40 1008.39 1009.32 1010.16 1010.93 1011.64 1012.31 1012.94 1013.53 1014.09 1014.60 1015.04 1015.41 1015.69
1008.98 1008.58 1008.13 1007.64 1007.14 1006.66 1006.21 1005.82 1005.49 1005.21 1004.97 1004.75 1004.50 1004.21 1003.84 1003.41 1002.90 1002.35 1001.79 1001.28 1000.87 1000.62 1000.56 1000.73 1001.12 1001.73 1002.52 1003.45 1004.47 1005.52 1006.56 1007.57 1008.51 1009.39 1010.19 1010.94 1011.65 1012.30 1012.92 1013.49 1014.01 1014.46 1014.83 1015.11
1008.22 1007.82 1007.40 1006.98 1006.57 1006.17 1005.79 1005.43 1005.09 1004.77 1004.45 1004.11 1003.74 1003.32 1002.84 1002.32 1001.76 1001.19 1000.66 1000.20 999.86 999.69 999.71 999.94 1000.38 1001.02 1001.82 1002.75 1003.75 1004.79 1005.83 1006.84 1007.80 1008.70 1009.53 1010.32 1011.04 1011.72 1012.35 1012.92 1013.43 1013.87 1014.23 1014.50
1007.29 1006.90 1006.54 1006.21 1005.88 1005.57 1005.25 1004.92 1004.57 1004.19 1003.77 1003.31 1002.81 1002.26 1001.68 1001.09 1000.50 999.95 999.46 999.09 998.85 998.79 998.91 999.23 999.73 1000.41 1001.23 1002.16 1003.16 1004.19 1005.22 1006.23 1007.19 1008.11 1008.97 1009.77 1010.51 1011.19 1011.81 1012.37 1012.85 1013.27 1013.60 1013.86
1006.25 1005.90 1005.60 1005.34 1005.11 1004.87 1004.61 1004.31 1003.94 1003.50 1003.00 1002.43 1001.82 1001.17 1000.51 999.88 999.29 998.77 998.37 998.09 997.98 998.03 998.27 998.68 999.25 999.96 1000.80 1001.72 1002.71 1003.72 1004.74 1005.74 1006.71 1007.63 1008.50 1009.30 1010.04 1010.71 1011.30 1011.83 1012.27 1012.64 1012.94 1013.18
1005.20 1004.87 1004.63 1004.45 1004.30 1004.14 1003.93 1003.65 1003.27 1002.80 1002.24 1001.60 1000.91 1000.20 999.51 998.87 998.31 997.86 997.54 997.38 997.39 997.56 997.89 998.38 999.00 999.74 1000.57 1001.48 1002.44 1003.42 1004.42 1005.40 1006.35 1007.27 1008.13 1008.92 1009.64 1010.28 1010.84 1011.31 1011.71 1012.03 1012.28 1012.48
1004.22 1003.92 1003.72 1003.61 1003.52 1003.43 1003.27 1003.02 1002.66 1002.19 1001.60 1000.94 1000.23 999.51 998.83 998.23 997.73 997.37 997.16 997.11 997.22 997.49 997.89 998.42 999.06 999.79 1000.60 1001.47 1002.38 1003.31 1004.27 1005.21 1006.14 1007.03 1007.87 1008.64 1009.33 1009.94 1010.45 1010.87 1011.20 1011.47 1011.67 1011.83
1003.41 1003.12 1002.96 1002.90 1002.87 1002.83 1002.73 1002.53 1002.21 1001.76 1001.21 1000.58 999.90 999.24 998.62 998.09 997.69 997.43 997.32 997.37 997.57 997.90 998.34 998.88 999.50 1000.18 1000.93 1001.72 1002.56 1003.42 1004.31 1005.20 1006.08 1006.94 1007.74 1008.48 1009.14 1009.70 1010.16 1010.53 1010.81 1011.02 1011.18 1011.31
1002.85 1002.58 1002.44 1002.41 1002.43 1002.44 1002.40 1002.26 1002.01 1001.63 1001.15 1000.60 1000.02 999.45 998.94 998.52 998.23 998.08 998.07 998.20 998.45 998.81 999.24 999.75 1000.31 1000.91 1001.56 1002.26 1002.99 1003.75 1004.55 1005.37 1006.19 1007.00 1007.76 1008.46 1009.08 1009.60 1010.02 1010.34 1010.58 1010.75 1010.87 1010.98
1002.62 1002.36 1002.25 1002.25 1002.31 1002.36 1002.38 1002.31 1002.14 1001.86 1001.48 1001.05 1000.59 1000.16 999.78 999.50 999.33 999.28 999.35 999.54 999.81 1000.16 1000.55 1000.99 1001.45 1001.95 1002.47 1003.04 1003.65 1004.30 1005.00 1005.72 1006.47 1007.21 1007.92 1008.58 1009.16 1009.65 1010.04 1010.33 1010.55 1010.69 1010.80 1010.89
1002.78 1002.54 1002.45 1002.47 1002.56 1002.65 1002.72 1002.72 1002.63 1002.46 1002.21 1001.91 1001.59 1001.30 1001.06 1000.91 1000.85 1000.89 1001.02 1001.23 1001.50 1001.81 1002.14 1002.48 1002.83 1003.20 1003.59 1004.02 1004.49 1005.02 1005.61 1006.24 1006.90 1007.57 1008.23 1008.84 1009.39 1009.85 1010.22 1010.50 1010.71 1010.86 1010.96 1011.06
1003.36 1003.15 1003.07 1003.11 1003.22 1003.35 1003.46 1003.51 1003.50 1003.42 1003.28 1003.10 1002.91 1002.75 1002.63 1002.59 1002.61 1002.71 1002.88 1003.09 1003.34 1003.59 1003.83 1004.07 1004.31 1004.55 1004.81 1005.11 1005.46 1005.87 1006.35 1006.88 1007.46 1008.07 1008.67 1009.23 1009.75 1010.19 1010.56 1010.84 1011.06 1011.22 1011.34 1011.45
1004.33 1004.15 1004.11 1004.16 1004.27 1004.41 1004.54 1004.63 1004.67 1004.65 1004.58 1004.49 1004.40 1004.33 1004.30 1004.32 1004.40 1004.53 1004.70 1004.90 1005.10 1005.28 1005.45 1005.60 1005.74 1005.87 1006.03 1006.22 1006.46 1006.78 1007.16 1007.62 1008.12 1008.66 1009.21 1009.74 1010.22 1010.65 1011.01 1011.31 1011.54 1011.72 1011.87 1012.00
1005.64 1005.50 1005.47 1005.53 1005.64 1005.77 1005.89 1005.98 1006.02 1006.03 1006.00 1005.95 1005.90 1005.88 1005.88 1005.94 1006.03 1006.16 1006.31 1006.47 1006.62 1006.75 1006.85 1006.93 1007.00 1007.06 1007.14 1007.27 1007.44 1007.69 1008.01 1008.40 1008.85 1009.33 1009.83 1010.32 1010.78 1011.20 1011.56 1011.86 1012.11 1012.31 1012.48 1012.64
1007.18 1007.08 1007.07 1007.12 1007.20 1007.30 1007.38 1007.43 1007.45 1007.43 1007.39 1007.34 1007.29 1007.26 1007.26 1007.29 1007.37 1007.46 1007.58 1007.70 1007.80 1007.89 1007.95 1007.99 1008.02 1008.06 1008.11 1008.21 1008.36 1008.58 1008.86 1009.21 1009.62 1010.06 1010.52 1010.98 1011.41 1011.81 1012.16 1012.46 1012.72 1012.94 1013.13 1013.29
1008.84 1008.78 1008.76 1008.79 1008.83 1008.87 1008.89 1008.88 1008.84 1008.76 1008.67 1008.57 1008.48 1008.40 1008.36 1008.35 1008.37 1008.43 1008.49 1008.57 1008.64 1008.70 1008.74 1008.78 1008.81 1008.86 1008.93 1009.04 1009.20 1009.42 1009.70 1010.04 1010.42 1010.83 1011.26 1011.68 1012.09 1012.46 1012.80 1013.09 1013.35 1013.57 1013.75 1013.91
1010.51 1010.46 1010.44 1010.43 1010.42 1010.38 1010.32 1010.23 1010.11 1009.96 1009.79 1009.62 1009.46 1009.32 1009.22 1009.14 1009.11 1009.10 1009.12 1009.16 1009.20 1009.25 1009.30 1009.36 1009.43 1009.51 1009.63 1009.78 1009.99 1010.23 1010.53 1010.87 1011.24 1011.64 1012.03 1012.43 1012.80 1013.14 1013.45 1013.73 1013.97 1014.17 1014.34 1014.48
1012.09 1012.04 1012.00 1011.94 1011.86 1011.75 1011.61 1011.43 1011.23 1011.00 1010.75 1010.51 1010.29 1010.08 1009.91 1009.78 1009.68 1009.63 1009.60 1009.61 1009.64 1009.69 1009.76 1009.85 1009.96 1010.10 1010.28 1010.49 1010.75 1011.04 1011.36 1011.72 1012.09 1012.46 1012.84 1013.19 1013.53 1013.83 1014.11 1014.35 1014.56 1014.73 1014.87 1014.98
1013.52 1013.46 1013.37 1013.26 1013.12 1012.94 1012.73 1012.48 1012.21 1011.92 1011.63 1011.33 1011.06 1010.80 1010.58 1010.40 1010.26 1010.16 1010.10 1010.09 1010.11 1010.16 1010.25 1010.37 1010.53 1010.73 1010.96 1011.23 1011.53 1011.86 1012.20 1012.57 1012.93 1013.29 1013.63 1013.95 1014.25 1014.51 1014.73 1014.93 1015.10 1015.23 1015.33 1015.39
1014.77 1014.68 1014.56 1014.40 1014.20 1013.98 1013.72 1013.43 1013.13 1012.81 1012.49 1012.18 1011.88 1011.61 1011.37 1011.16 1010.99 1010.87 1010.78 1010.75 1010.75 1010.81 1010.90 1011.04 1011.23 1011.46 1011.72 1012.02 1012.35 1012.70 1013.06 1013.42 1013.77 1014.10 1014.41 1014.68 1014.92 1015.13 1015.31 1015.45 1015.56 1015.65 1015.71 1015.72
Thickness
5690 5698 5699 5701 5705 5705 5701 5699 5696 5707 5714 5732 5742 5747 5751 5752 5750 5748 5746 5744 5742 5740 5737 5734 5731 5728 5725 5722 5719 5716 5711 5708 5705 5703 5701 5698 5696 5694 5692 5691 5690 5688 5686 5684
5684 5695 5695 5697 5705 5706 5706 5708 5707 5713 5720 5741 5746 5750 5750 5751 5750 5748 5747 5748 5746 5744 5741 5738 5735 5732 5728 5724 5721 5717 5713 5710 5707 5704 5701 5699 5696 5694 5691 5689 5688 5686 5684 5683
5669 5683 5687 5683 5701 5705 5706 5711 5711 5709 5723 5737 5740 5744 5747 5750 5751 5751 5752 5752 5750 5748 5747 5744 5741 5737 5732 5728 5723 5718 5715 5712 5708 5705 5702 5699 5697 5693 5691 5688 5686 5684 5682 5681
5660 5669 5663 5690 5708 5711 5708 5713 5717 5721 5728 5734 5740 5745 5750 5752 5752 5752 5755 5755 5754 5753 5750 5748 5745 5740 5735 5730 5724 5720 5716 5713 5710 5706 5703 5700 5696 5693 5690 5687 5685 5683 5681 5679
5651 5655 5669 5689 5701 5703 5701 5704 5717 5719 5726 5731 5738 5740 5744 5751 5753 5754 5757 5759 5759 5759 5755 5750 5746 5742 5735 5730 5725 5721 5718 5715 5713 5709 5704 5700 5696 5692 5689 5686 5683 5681 5679 5677
5649 5653 5658 5681 5699 5706 5701 5695 5715 5718 5721 5725 5730 5724 5734 5750 5752 5753 5756 5758 5758 5759 5755 5750 5746 5742 5735 5730 5725 5722 5721 5719 5715 5711 5706 5701 5698 5693 5689 5686 5683 5680 5678 5676
5647 5650 5664 5685 5695 5699 5682 5692 5709 5714 5718 5721 5723 5728 5738 5746 5749 5752 5754 5755 5756 5756 5754 5751 5747 5741 5735 5731 5728 5728 5724 5720 5715 5710 5706 5703 5698 5693 5688 5684 5680 5677 5675 5674
5642 5644 5657 5684 5687 5684 5688 5699 5705 5710 5715 5717 5723 5730 5736 5741 5745 5748 5750 5752 5753 5752 5751 5749 5746 5740 5736 5733 5733 5728 5722 5717 5712 5708 5704 5701 5695 5690 5686 5682 5677 5674 5672 5670
5647 5654 5669 5677 5680 5687 5691 5694 5702 5707 5712 5716 5720 5725 5731 5735 5739 5742 5745 5748 5750 5749 5747 5745 5743 5741 5736 5734 5730 5724 5718 5714 5710 5706 5702 5699 5693 5688 5682 5679 5675 5673 5669 5667
5647 5657 5665 5672 5678 5684 5689 5692 5699 5705 5709 5715 5718 5722 5726 5730 5734 5737 5740 5743 5745 5744 5741 5739 5739 5739 5736 5732 5727 5721 5715 5710 5706 5702 5698 5695 5691 5687 5682 5678 5674 5670 5667 5665
5644 5654 5661 5669 5672 5678 5684 5690 5696 5702 5707 5711 5714 5718 5722 5725 5728 5731 5734 5737 5739 5738 5737 5736 5735 5733 5731 5728 5724 5717 5711 5706 5701 5698 5695 5691 5688 5685 5682 5679 5676 5671 5668 5665
5641 5650 5652 5659 5667 5674 5678 5683 5689 5695 5700 5705 5709 5712 5716 5719 5722 5725 5727 5729 5730 5730 5729 5728 5727 5725 5724 5722 5719 5713 5707 5702 5698 5694 5691 5687 5683 5679 5677 5675 5672 5669 5665 5662
5643 5649 5651 5656 5662 5668 5672 5677 5683 5688 5692 5696 5701 5706 5709 5711 5714 5717 5718 5719 5720 5721 5721 5720 5720 5718 5716 5715 5713 5708 5703 5698 5694 5690 5686 5682 5678 5675 5671 5668 5665 5662 5659 5656
5642 5645 5647 5652 5656 5662 5667 5671 5677 5681 5685 5689 5693 5697 5700 5703 5705 5707 5707 5709 5711 5713 5712 5711 5710 5708 5708 5707 5704 5700 5697 5692 5688 5684 5680 5677 5674 5670 5666 5662 5658 5656 5653 5649
5639 5641 5644 5648 5651 5656 5661 5666 5669 5672 5676 5680 5684 5687 5690 5692 5693 5694 5697 5701 5704 5703 5701 5701 5700 5698 5699 5698 5695 5691 5688 5684 5681 5677 5674 5670 5667 5664 5660 5657 5653 5649 5646 5643
5634 5638 5642 5644 5646 5650 5655 5658 5659 5661 5666 5669 5672 5675 5678 5681 5683 5684 5686 5689 5690 5688 5688 5689 5688 5688 5689 5688 5685 5682 5678 5676 5673 5669 5665 5661 5657 5654 5651 5648 5645 5641 5638 5635
5629 5631 5634 5636 5639 5643 5646 5649 5650 5652 5655 5658 5660 5664 5667 5670 5670 5670 5670 5672 5673 5673 5674 5676 5676 5678 5678 5676 5674 5671 5668 5666 5663 5659 5655 5651 5648 5644 5640 5637 5634 5631 5629 5625
5627 5629 5631 5633 5635 5636 5638 5640 5641 5643 5645 5647 5651 5653 5655 5656 5655 5655 5656 5659 5661 5660 5660 5662 5665 5667 5666 5665 5662 5660 5657 5654 5651 5648 5644 5640 5637 5634 5630 5627 5623 5620 5617 5614
5623 5624 5626 5627 5628 5630 5631 5631 5632 5634 5636 5638 5640 5640 5641 5641 5641 5642 5645 5647 5647 5645 5645 5649 5651 5654 5653 5652 5650 5647 5644 5641 5638 5635 5631 5628 5624 5622 5618 5615 5612 5609 5605 5602
5617 5618 5620 5620 5621 5621 5622 5623 5624 5625 5627 5629 5629 5629 5628 5628 5629 5630 5631 5631 5629 5629 5631 5635 5637 5637 5637 5637 5636 5634 5631 5628 5625 5622 5618 5615 5612 5608 5605 5602 5599 5597 5593 5589
5607 5609 5610 5611 5611 5611 5612 5614 5615 5615 5616 5617 5617 5616 5614 5614 5616 5618 5619 5617 5615 5618 5620 5621 5622 5621 5621 5621 5620 5618 5616 5613 5610 5608 5604 5601 5598 5595 5592 5589 5586 5583 5579 5576
5596 5597 5598 5600 5600 5600 5601 5602 5604 5604 5604 5604 5604 5604 5603 5602 5603 5604 5603 5602 5603 5604 5606 5607 5606 5606 5606 5606 5604 5602 5600 5598 5595 5592 5589 5586 5583 5580 5578 5575 5571 5568 5565 5562
5585 5586 5587 5588 5588 5588 5589 5590 5591 5592 5592 5591 5591 5591 5590 5589 5590 5592 5590 5590 5592 5593 5593 5593 5592 5592 5592 5591 5589 5587 5584 5581 5578 5575 5572 5570 5567 5564 5561 5559 5556 5553 5549 5546
5575 5576 5576 5577 5579 5580 5578 5577 5578 5579 5579 5579 5578 5579 5579 5579 5578 5578 5578 5578 5579 5580 5579 5577 5577 5577 5577 5575 5573 5570 5567 5565 5562 5559 5556 5554 5551 5548 5545 5543 5540 5537 5533 5531
5565 5566 5567 5568 5567 5566 5565 5566 5567 5567 5568 5568 5567 5567 5568 5568 5567 5566 5567 5568 5567 5567 5565 5564 5563 5562 5561 5559 5557 5555 5552 5549 5547 5544 5541 5538 5535 5532 5529 5527 5524 5521 5519 5516
5555 5554 5555 5554 5554 5554 5555 5557 5556 5556 5557 5557 5556 5556 5557 5557 5556 5556 5555 5555 5554 5553 5551 5550 5549 5547 5546 5544 5542 5539 5536 5534 5531 5528 5525 5523 5520 5517 5514 5511 5509 5507 5505 5503
5545 5545 5545 5545 5544 5545 5546 5546 5545 5545 5545 5545 5543 5543 5543 5543 5543 5542 5541 5540 5539 5538 5537 5535 5533 5532 5530 5528 5526 5524 5521 5518 5515 5512 5510 5508 5505 5502 5500 5497 5495 5494 5492 5490